• In Deutschland
  • Länderverzeichnis
  • Für 7 Tage
  • Wassertemperatur
  • Satellitenkarten
  • Wetterkarte
  • Widgets
  • user-avatar
    Anmelden

    Stündliche Wetter Mingachevir

    Heute, 21 August, Montag

    Zeit Temperatur Niederschläge Wind Luftdruck Luftfeuchtigkeit
    00:00 +28°C° 0 mm 2 m/S 752 mmHg 39%
    01:00 +27°C° 0 mm 2 m/S 752 mmHg 40%
    02:00 +27°C° 0 mm 2 m/S 752 mmHg 40%
    03:00 +27°C° 0 mm 1 m/S 751 mmHg 41%
    04:00 +27°C° 0 mm 1 m/S 751 mmHg 42%
    05:00 +27°C° 0 mm 1 m/S 751 mmHg 43%
    06:00 +27°C° 0 mm 1 m/S 752 mmHg 44%
    07:00 +29°C° 0 mm 1 m/S 751 mmHg 39%
    08:00 +31°C° 0 mm 2 m/S 751 mmHg 34%
    09:00 +35°C° 0 mm 2 m/S 751 mmHg 29%
    10:00 +36°C° 0 mm 2 m/S 750 mmHg 27%
    11:00 +37°C° 0 mm 3 m/S 750 mmHg 25%
    12:00 +38°C° 0 mm 3 m/S 750 mmHg 23%
    13:00 +39°C° 0 mm 3 m/S 749 mmHg 23%
    14:00 +40°C° 0 mm 4 m/S 749 mmHg 23%
    15:00 +41°C° 0 mm 4 m/S 748 mmHg 22%
    16:00 +40°C° 0 mm 4 m/S 748 mmHg 24%
    17:00 +39°C° 0 mm 3 m/S 748 mmHg 25%
    18:00 +38°C° 0 mm 3 m/S 748 mmHg 26%
    19:00 +36°C° 0 mm 3 m/S 749 mmHg 29%
    20:00 +34°C° 0 mm 3 m/S 749 mmHg 31%
    21:00 +31°C° 0 mm 3 m/S 750 mmHg 34%
    22:00 +30°C° 0 mm 3 m/S 750 mmHg 36%
    23:00 +29°C° 0 mm 2 m/S 749 mmHg 39%

    Morgen, 22 August, Dienstag

    Zeit Temperatur Niederschläge Wind Luftdruck Luftfeuchtigkeit
    00:00 +28°C° 0 mm 2 m/S 749 mmHg 41%
    01:00 +28°C° 0 mm 2 m/S 749 mmHg 43%
    02:00 +27°C° 0 mm 1 m/S 749 mmHg 44%
    03:00 +27°C° 0 mm 1 m/S 749 mmHg 45%
    04:00 +27°C° 0 mm 1 m/S 749 mmHg 44%
    05:00 +27°C° 0 mm 1 m/S 749 mmHg 43%
    06:00 +27°C° 0 mm 1 m/S 749 mmHg 43%
    07:00 +29°C° 0 mm 1 m/S 749 mmHg 37%
    08:00 +31°C° 0 mm 1 m/S 749 mmHg 31%
    09:00 +35°C° 0 mm 2 m/S 749 mmHg 25%
    10:00 +36°C° 0 mm 2 m/S 749 mmHg 23%
    11:00 +37°C° 0 mm 3 m/S 748 mmHg 21%
    12:00 +39°C° 0 mm 3 m/S 748 mmHg 19%
    13:00 +39°C° 0 mm 3 m/S 747 mmHg 18%
    14:00 +41°C° 0 mm 4 m/S 747 mmHg 18%
    15:00 +42°C° 0 mm 4 m/S 746 mmHg 18%
    16:00 +41°C° 0 mm 4 m/S 747 mmHg 19%
    17:00 +40°C° 0 mm 4 m/S 747 mmHg 21%
    18:00 +38°C° 0 mm 4 m/S 747 mmHg 23%
    19:00 +36°C° 0 mm 4 m/S 747 mmHg 25%
    20:00 +34°C° 0 mm 4 m/S 748 mmHg 27%
    21:00 +32°C° 0 mm 4 m/S 748 mmHg 30%
    22:00 +30°C° 0 mm 4 m/S 748 mmHg 32%
    23:00 +29°C° 0 mm 3 m/S 748 mmHg 35%

    übermorgen, 23 August, Mittwoch

    Zeit Temperatur Niederschläge Wind Luftdruck Luftfeuchtigkeit
    00:00 +28°C° 0 mm 2 m/S 748 mmHg 37%
    01:00 +27°C° 0 mm 2 m/S 748 mmHg 38%
    02:00 +27°C° 0 mm 1 m/S 748 mmHg 40%
    03:00 +26°C° 0 mm 1 m/S 748 mmHg 41%
    04:00 +26°C° 0 mm 1 m/S 749 mmHg 41%
    05:00 +27°C° 0 mm 1 m/S 749 mmHg 40%
    06:00 +27°C° 0 mm 1 m/S 749 mmHg 40%
    07:00 +29°C° 0 mm 1 m/S 749 mmHg 34%
    08:00 +31°C° 0 mm 2 m/S 749 mmHg 27%
    09:00 +35°C° 0 mm 2 m/S 749 mmHg 21%
    10:00 +36°C° 0 mm 3 m/S 749 mmHg 18%
    11:00 +38°C° 0 mm 4 m/S 749 mmHg 16%
    12:00 +40°C° 0 mm 5 m/S 748 mmHg 14%
    13:00 +41°C° 0 mm 5 m/S 748 mmHg 15%
    14:00 +41°C° 0 mm 6 m/S 748 mmHg 16%
    15:00 +43°C° 0 mm 7 m/S 747 mmHg 17%
    16:00 +40°C° 0 mm 7 m/S 747 mmHg 19%
    17:00 +39°C° 0 mm 7 m/S 747 mmHg 21%
    18:00 +36°C° 0 mm 7 m/S 748 mmHg 22%
    19:00 +34°C° 0 mm 5 m/S 748 mmHg 25%
    20:00 +32°C° 0 mm 4 m/S 749 mmHg 28%
    21:00 +29°C° 0 mm 2 m/S 750 mmHg 31%
    22:00 +29°C° 0 mm 2 m/S 750 mmHg 32%
    23:00 +28°C° 0 mm 1 m/S 750 mmHg 32%

    24 August, Donnerstag

    Zeit Temperatur Niederschläge Wind Luftdruck Luftfeuchtigkeit
    00:00 +27°C° 0 mm 1 m/S 751 mmHg 33%
    01:00 +27°C° 0 mm 1 m/S 751 mmHg 33%
    02:00 +27°C° 0 mm 2 m/S 751 mmHg 33%
    03:00 +27°C° 0 mm 2 m/S 751 mmHg 33%
    04:00 +27°C° 0 mm 2 m/S 752 mmHg 34%
    05:00 +27°C° 0 mm 2 m/S 752 mmHg 35%
    06:00 +27°C° 0 mm 2 m/S 752 mmHg 35%
    07:00 +29°C° 0 mm 2 m/S 752 mmHg 31%
    08:00 +31°C° 0 mm 2 m/S 752 mmHg 27%
    09:00 +34°C° 0 mm 2 m/S 753 mmHg 22%
    10:00 +36°C° 0 mm 3 m/S 752 mmHg 20%
    11:00 +37°C° 0 mm 4 m/S 752 mmHg 18%
    12:00 +40°C° 0 mm 5 m/S 752 mmHg 15%
    13:00 +40°C° 0 mm 5 m/S 751 mmHg 15%
    14:00 +41°C° 0 mm 6 m/S 751 mmHg 15%
    15:00 +41°C° 0 mm 6 m/S 751 mmHg 15%
    16:00 +40°C° 0 mm 6 m/S 751 mmHg 16%
    17:00 +39°C° 0 mm 6 m/S 751 mmHg 18%
    18:00 +38°C° 0 mm 6 m/S 752 mmHg 19%
    19:00 +34°C° 0 mm 5 m/S 752 mmHg 22%
    20:00 +32°C° 0 mm 5 m/S 753 mmHg 24%
    21:00 +29°C° 0 mm 4 m/S 753 mmHg 27%
    22:00 +28°C° 0 mm 3 m/S 753 mmHg 28%
    23:00 +27°C° 0 mm 3 m/S 753 mmHg 30%

    25 August, Freitag

    Zeit Temperatur Niederschläge Wind Luftdruck Luftfeuchtigkeit
    00:00 +27°C° 0 mm 2 m/S 753 mmHg 32%
    01:00 +26°C° 0 mm 2 m/S 754 mmHg 33%
    02:00 +25°C° 0 mm 2 m/S 754 mmHg 34%
    03:00 +25°C° 0 mm 1 m/S 754 mmHg 35%
    04:00 +25°C° 0 mm 1 m/S 754 mmHg 35%
    05:00 +25°C° 0 mm 1 m/S 754 mmHg 35%
    06:00 +25°C° 0 mm 1 m/S 754 mmHg 35%
    07:00 +28°C° 0 mm 1 m/S 754 mmHg 29%
    08:00 +30°C° 0 mm 1 m/S 754 mmHg 24%
    09:00 +32°C° 0 mm 1 m/S 754 mmHg 19%
    10:00 +35°C° 0 mm 2 m/S 754 mmHg 16%
    11:00 +36°C° 0 mm 3 m/S 753 mmHg 14%
    12:00 +38°C° 0 mm 3 m/S 753 mmHg 12%
    13:00 +38°C° 0 mm 4 m/S 752 mmHg 11%
    14:00 +40°C° 0 mm 4 m/S 752 mmHg 11%
    15:00 +41°C° 0 mm 5 m/S 752 mmHg 11%
    16:00 +40°C° 0 mm 5 m/S 752 mmHg 12%
    17:00 +39°C° 0 mm 5 m/S 752 mmHg 14%
    18:00 +36°C° 0 mm 5 m/S 752 mmHg 15%
    19:00 +34°C° 0 mm 4 m/S 753 mmHg 19%
    20:00 +32°C° 0 mm 4 m/S 753 mmHg 22%
    21:00 +29°C° 0 mm 4 m/S 754 mmHg 26%
    22:00 +28°C° 0 mm 4 m/S 754 mmHg 29%
    23:00 +27°C° 0 mm 3 m/S 754 mmHg 33%

    26 August, Samstag

    Zeit Temperatur Niederschläge Wind Luftdruck Luftfeuchtigkeit
    00:00 +26°C° 0 mm 2 m/S 754 mmHg 36%
    01:00 +26°C° 0 mm 2 m/S 754 mmHg 37%
    02:00 +25°C° 0 mm 2 m/S 754 mmHg 37%
    03:00 +25°C° 0 mm 1 m/S 754 mmHg 38%
    04:00 +25°C° 0 mm 1 m/S 754 mmHg 37%
    05:00 +25°C° 0 mm 1 m/S 754 mmHg 36%
    06:00 +25°C° 0 mm 1 m/S 755 mmHg 35%
    07:00 +28°C° 0 mm 1 m/S 754 mmHg 31%
    08:00 +30°C° 0 mm 2 m/S 754 mmHg 26%
    09:00 +32°C° 0 mm 2 m/S 754 mmHg 22%
    10:00 +35°C° 0 mm 3 m/S 754 mmHg 20%
    11:00 +36°C° 0 mm 3 m/S 753 mmHg 18%
    12:00 +37°C° 0 mm 4 m/S 753 mmHg 16%
    13:00 +38°C° 0 mm 4 m/S 752 mmHg 15%
    14:00 +38°C° 0 mm 4 m/S 752 mmHg 15%
    15:00 +40°C° 0 mm 5 m/S 751 mmHg 14%
    16:00 +38°C° 0 mm 4 m/S 751 mmHg 15%
    17:00 +37°C° 0 mm 4 m/S 752 mmHg 17%
    18:00 +36°C° 0 mm 4 m/S 752 mmHg 18%
    19:00 +34°C° 0 mm 4 m/S 752 mmHg 21%
    20:00 +32°C° 0 mm 4 m/S 753 mmHg 24%
    21:00 +30°C° 0 mm 5 m/S 753 mmHg 27%
    22:00 +29°C° 0 mm 4 m/S 753 mmHg 30%
    23:00 +28°C° 0 mm 3 m/S 753 mmHg 32%
    Mehr zeigen